Tracking 22879 objects as of 20-Apr-2021
HD Live streaming from Space Station
objects crossing your sky now

AMC-7 (GE-7)

Track AMC-7 (GE-7) now!
AMC-7 (GE-7) is classified as:


NORAD ID: 26495
Int'l Code: 2000-054B
Perigee: 36,095.3 km
Apogee: 36,134.5 km
Inclination: 2.1 °
Period: 1,452.5 minutes
Semi major axis: 42485 km
RCS: 22.9975 m2 (large)
Launch date: September 14, 2000
Source: SOCIETE EUROPEENNE DES SATELLITES (SES)
Launch site: FRENCH GUIANA (FRGUI)

Cable programming; 24 C-band; CONUS, Alaska, Hawaii, Caribbean
aabbcc
Your satellite tracking list
Your tracking list is empty




NASA's NSSDC Master Catalog

Two Line Element Set (TLE):
1 26495U 00054B   21110.16830851 -.00000143  00000-0  00000+0 0  9990
2 26495   2.1155  91.8946 0004612 350.8488   6.7624  0.99136835 75313
Source of the keplerian elements: AFSPC